| time (UTC) | temp F | wind direction | speed MPH | gust MPH | rain 1hr in | rain 24hr in | rain mn in | humidity % | barometer mb |
| 20260503202503 | 51 | 222 | 3.0 | 7.0 | 0.00 | 0.05 | 0.05 | 77 | 1013.5 |
| 20260503202212 | 51 | 222 | 4.0 | 9.0 | 0.00 | 0.05 | 0.05 | 76 | 1013.4 |
| 20260503201503 | 51 | 222 | 5.0 | 9.0 | 0.00 | 0.05 | 0.05 | 76 | 1013.5 |
| 20260503201213 | 52 | 222 | 4.0 | 9.0 | 0.00 | 0.05 | 0.05 | 77 | 1013.5 |
| 20260503200716 | 52 | 222 | 4.0 | 8.0 | 0.00 | 0.05 | 0.05 | 77 | 1013.5 |
| 20260503200003 | 51 | 222 | 5.0 | 8.0 | 0.00 | 0.05 | 0.05 | 77 | 1013.5 |
| 20260503195503 | 51 | 222 | 4.0 | 7.0 | 0.00 | 0.05 | 0.05 | 77 | 1013.5 |
| 20260503195003 | 51 | 222 | 4.0 | 7.0 | 0.00 | 0.05 | 0.05 | 77 | 1013.5 |
| 20260503194503 | 51 | 222 | 4.0 | 8.0 | 0.00 | 0.05 | 0.05 | 77 | 1013.6 |
| 20260503194003 | 51 | 222 | 4.0 | 8.0 | 0.00 | 0.05 | 0.05 | 77 | 1013.5 |
| 20260503193714 | 51 | 222 | 4.0 | 8.0 | 0.00 | 0.05 | 0.05 | 77 | 1013.6 |
| 20260503193003 | 51 | 222 | 4.0 | 7.0 | 0.00 | 0.05 | 0.05 | 78 | 1013.6 |
| 20260503192503 | 51 | 222 | 4.0 | 7.0 | 0.00 | 0.05 | 0.05 | 78 | 1013.5 |
| 20260503192003 | 50 | 222 | 4.0 | 8.0 | 0.00 | 0.05 | 0.05 | 78 | 1013.6 |
| 20260503191503 | 50 | 222 | 5.0 | 8.0 | 0.00 | 0.05 | 0.05 | 78 | 1013.6 |
| 20260503191003 | 50 | 222 | 5.0 | 8.0 | 0.00 | 0.05 | 0.05 | 78 | 1013.6 |
| 20260503190717 | 51 | 222 | 4.0 | 8.0 | 0.00 | 0.05 | 0.05 | 78 | 1013.6 |
| 20260503190215 | 50 | 222 | 5.0 | 9.0 | 0.00 | 0.05 | 0.05 | 79 | 1013.6 |
| 20260503185503 | 50 | 222 | 5.0 | 10.0 | 0.00 | 0.05 | 0.05 | 78 | 1013.6 |
| 20260503185003 | 50 | 222 | 4.0 | 10.0 | 0.00 | 0.05 | 0.05 | 78 | 1013.5 |
| 20260503184503 | 50 | 222 | 4.0 | 8.0 | 0.00 | 0.05 | 0.05 | 79 | 1013.5 |
| 20260503184217 | 50 | 222 | 4.0 | 8.0 | 0.00 | 0.05 | 0.05 | 79 | 1013.5 |
| 20260503183503 | 50 | 222 | 4.0 | 8.0 | 0.00 | 0.05 | 0.05 | 79 | 1013.5 |
| 20260503183004 | 50 | 222 | 4.0 | 8.0 | 0.00 | 0.05 | 0.05 | 80 | 1013.6 |
| 20260503182503 | 49 | 222 | 5.0 | 9.0 | 0.00 | 0.05 | 0.05 | 80 | 1013.5 |
| 20260503182214 | 49 | 222 | 5.0 | 9.0 | 0.00 | 0.05 | 0.05 | 80 | 1013.5 |
| 20260503181717 | 49 | 222 | 5.0 | 8.0 | 0.00 | 0.05 | 0.05 | 80 | 1013.4 |
| 20260503181003 | 48 | 222 | 6.0 | 9.0 | 0.00 | 0.05 | 0.05 | 80 | 1013.4 |
| 20260503180503 | 48 | 222 | 6.0 | 12.0 | 0.00 | 0.05 | 0.05 | 80 | 1013.4 |
| 20260503180004 | 48 | 222 | 7.0 | 12.0 | 0.00 | 0.05 | 0.05 | 80 | 1013.4 |
| 20260503175503 | 48 | 222 | 7.0 | 12.0 | 0.00 | 0.05 | 0.05 | 80 | 1013.4 |
| 20260503175217 | 48 | 222 | 7.0 | 12.0 | 0.00 | 0.05 | 0.05 | 80 | 1013.4 |
| 20260503174503 | 48 | 222 | 6.0 | 13.0 | 0.00 | 0.05 | 0.05 | 80 | 1013.3 |
| 20260503174003 | 49 | 222 | 5.0 | 13.0 | 0.00 | 0.05 | 0.05 | 80 | 1013.3 |
| 20260503173504 | 49 | 222 | 5.0 | 9.0 | 0.00 | 0.05 | 0.05 | 80 | 1013.3 |
| 20260503173213 | 49 | 222 | 5.0 | 9.0 | 0.00 | 0.05 | 0.05 | 80 | 1013.2 |
| 20260503172504 | 49 | 222 | 6.0 | 10.0 | 0.00 | 0.05 | 0.05 | 80 | 1013.2 |
| 20260503172003 | 48 | 222 | 6.0 | 10.0 | 0.00 | 0.05 | 0.05 | 80 | 1013.2 |
| 20260503171503 | 48 | 222 | 6.0 | 9.0 | 0.00 | 0.05 | 0.05 | 80 | 1013.2 |
| 20260503171003 | 48 | 222 | 6.0 | 9.0 | 0.00 | 0.05 | 0.05 | 80 | 1013.2 |
| 20260503170503 | 47 | 222 | 6.0 | 10.0 | 0.00 | 0.05 | 0.05 | 80 | 1013.2 |
| 20260503150503 | 47 | 222 | 5.0 | 10.0 | 0.02 | 0.05 | 0.05 | 80 | 1012.4 |
| 20260503150213 | 47 | 222 | 5.0 | 10.0 | 0.02 | 0.05 | 0.05 | 80 | 1012.3 |
| 20260503131213 | 46 | 222 | 5.0 | 7.0 | 0.00 | 0.02 | 0.02 | 80 | 1011.3 |
| 20260503130503 | 46 | 222 | 5.0 | 8.0 | 0.00 | 0.02 | 0.02 | 80 | 1011.2 |
| 20260503120214 | 46 | 222 | 5.0 | 11.0 | 0.00 | 0.02 | 0.02 | 80 | 1011.0 |
| 20260503110717 | 46 | 222 | 4.0 | 9.0 | 0.02 | 0.02 | 0.02 | 80 | 1011.3 |
| 20260503090503 | 46 | 222 | 5.0 | 10.0 | 0.00 | 0.00 | 0.00 | 80 | 1011.3 |
| 20260503081003 | 46 | 222 | 4.0 | 8.0 | 0.00 | 0.00 | 0.00 | 79 | 1011.9 |
| 20260503080503 | 46 | 222 | 3.0 | 5.0 | 0.00 | 0.00 | 0.00 | 79 | 1011.8 |
| 20260503080217 | 46 | 222 | 3.0 | 6.0 | 0.00 | 0.00 | 0.00 | 79 | 1011.9 |
| 20260503072503 | 46 | 222 | 2.0 | 6.0 | 0.00 | 0.00 | 0.00 | 79 | 1012.0 |
| 20260503072003 | 46 | 222 | 1.0 | 4.0 | 0.00 | 0.00 | 0.00 | 79 | 1012.0 |
| 20260503071503 | 46 | 222 | 2.0 | 5.0 | 0.00 | 0.00 | 0.00 | 79 | 1011.9 |
| 20260503071217 | 46 | 222 | 2.0 | 5.0 | 0.00 | 0.00 | 0.00 | 79 | 1011.9 |
| 20260503070503 | 46 | 222 | 1.0 | 3.0 | 0.00 | 0.00 | 0.00 | 79 | 1011.8 |
| 20260503055003 | 46 | 222 | 3.0 | 6.0 | 0.00 | 0.00 | 0.00 | 79 | 1011.9 |
| 20260503054712 | 46 | 222 | 3.0 | 6.0 | 0.00 | 0.00 | 0.00 | 79 | 1012.0 |
| 20260503054003 | 46 | 222 | 3.0 | 5.0 | 0.00 | 0.00 | 0.00 | 79 | 1012.0 |
| 20260503053713 | 46 | 222 | 3.0 | 7.0 | 0.00 | 0.00 | 0.00 | 79 | 1012.1 |
| 20260503053003 | 46 | 222 | 3.0 | 7.0 | 0.00 | 0.00 | 0.00 | 79 | 1012.1 |
| 20260503052503 | 46 | 222 | 4.0 | 7.0 | 0.00 | 0.00 | 0.00 | 79 | 1012.1 |
| 20260503052003 | 46 | 222 | 4.0 | 7.0 | 0.00 | 0.00 | 0.00 | 79 | 1012.1 |
| 20260503051715 | 46 | 222 | 4.0 | 6.0 | 0.00 | 0.00 | 0.00 | 79 | 1012.2 |
| 20260503051213 | 46 | 222 | 3.0 | 6.0 | 0.00 | 0.00 | 0.00 | 79 | 1012.1 |
| 20260503050503 | 46 | 222 | 3.0 | 6.0 | 0.00 | 0.00 | 0.00 | 79 | 1012.2 |
| 20260503050003 | 46 | 222 | 4.0 | 7.0 | 0.00 | 0.00 | 0.00 | 79 | 1012.1 |
| 20260503045503 | 46 | 222 | 4.0 | 7.0 | 0.00 | 0.00 | 0.00 | 79 | 1012.1 |
| 20260503045215 | 46 | 222 | 3.0 | 6.0 | 0.00 | 0.00 | 0.00 | 79 | 1012.1 |
| 20260503044503 | 46 | 222 | 2.0 | 7.0 | 0.00 | 0.00 | 0.00 | 79 | 1012.1 |
| 20260503044003 | 46 | 222 | 1.0 | 5.0 | 0.00 | 0.00 | 0.00 | 79 | 1012.0 |
| 20260503043503 | 46 | 222 | 1.0 | 5.0 | 0.00 | 0.00 | 0.00 | 79 | 1012.0 |
| 20260503043003 | 46 | 222 | 1.0 | 4.0 | 0.00 | 0.00 | 0.00 | 79 | 1012.0 |
| 20260503042503 | 46 | 222 | 2.0 | 4.0 | 0.00 | 0.00 | 0.00 | 79 | 1012.0 |
| 20260503042212 | 46 | 222 | 2.0 | 5.0 | 0.00 | 0.00 | 0.00 | 79 | 1011.9 |
| 20260503041503 | 46 | 222 | 3.0 | 6.0 | 0.00 | 0.00 | 0.00 | 79 | 1011.8 |
| 20260503041003 | 46 | 222 | 3.0 | 6.0 | 0.00 | 0.00 | 0.00 | 79 | 1011.8 |
| 20260503040716 | 46 | 222 | 3.0 | 6.0 | 0.00 | 0.00 | 0.00 | 79 | 1011.8 |
| 20260503040003 | 46 | 222 | 3.0 | 5.0 | 0.00 | 0.00 | 0.00 | 79 | 1011.6 |
| 20260503035503 | 46 | 222 | 3.0 | 6.0 | 0.00 | 0.00 | 0.00 | 79 | 1011.5 |
| 20260503035003 | 46 | 222 | 3.0 | 6.0 | 0.00 | 0.00 | 0.00 | 79 | 1011.4 |
| 20260503034503 | 46 | 222 | 4.0 | 6.0 | 0.00 | 0.00 | 0.00 | 79 | 1011.4 |
| 20260503034003 | 46 | 222 | 4.0 | 7.0 | 0.00 | 0.00 | 0.00 | 79 | 1011.3 |
| 20260503033503 | 46 | 222 | 4.0 | 7.0 | 0.00 | 0.00 | 0.00 | 79 | 1011.3 |
| 20260503033212 | 46 | 222 | 4.0 | 7.0 | 0.00 | 0.00 | 0.00 | 79 | 1011.2 |
| 20260503032503 | 46 | 222 | 5.0 | 9.0 | 0.00 | 0.00 | 0.00 | 79 | 1011.2 |
| 20260503032003 | 46 | 222 | 6.0 | 10.0 | 0.00 | 0.00 | 0.00 | 79 | 1011.2 |
| 20260503031503 | 46 | 222 | 5.0 | 10.0 | 0.00 | 0.00 | 0.00 | 79 | 1011.2 |
| 20260503031003 | 46 | 222 | 5.0 | 8.0 | 0.00 | 0.00 | 0.00 | 79 | 1011.1 |
| 20260503030503 | 46 | 222 | 5.0 | 8.0 | 0.00 | 0.00 | 0.00 | 79 | 1011.1 |
| 20260503030003 | 46 | 222 | 5.0 | 9.0 | 0.00 | 0.00 | 0.00 | 79 | 1011.1 |
| 20260503025503 | 47 | 222 | 5.0 | 9.0 | 0.00 | 0.00 | 0.00 | 79 | 1010.9 |
| 20260503025003 | 47 | 222 | 5.0 | 9.0 | 0.00 | 0.00 | 0.00 | 79 | 1011.0 |
| 20260503024503 | 47 | 222 | 5.0 | 9.0 | 0.00 | 0.00 | 0.00 | 79 | 1010.9 |
| 20260503024003 | 47 | 222 | 5.0 | 9.0 | 0.00 | 0.00 | 0.00 | 79 | 1010.8 |
| 20260503023503 | 47 | 222 | 5.0 | 9.0 | 0.00 | 0.00 | 0.00 | 79 | 1010.7 |
| 20260503023213 | 47 | 222 | 5.0 | 9.0 | 0.00 | 0.00 | 0.00 | 79 | 1010.8 |
| 20260503022503 | 47 | 222 | 4.0 | 7.0 | 0.00 | 0.00 | 0.00 | 79 | 1010.9 |
| 20260503022003 | 47 | 222 | 5.0 | 9.0 | 0.00 | 0.00 | 0.00 | 79 | 1010.8 |
| 20260503021503 | 47 | 222 | 6.0 | 9.0 | 0.00 | 0.00 | 0.00 | 79 | 1010.8 |
| 20260503021003 | 48 | 222 | 6.0 | 9.0 | 0.00 | 0.00 | 0.00 | 79 | 1010.8 |
| 20260503020503 | 48 | 222 | 6.0 | 10.0 | 0.00 | 0.00 | 0.00 | 79 | 1010.7 |
| 20260503020003 | 48 | 222 | 5.0 | 10.0 | 0.00 | 0.00 | 0.00 | 79 | 1010.7 |
| 20260503015503 | 48 | 222 | 5.0 | 8.0 | 0.00 | 0.00 | 0.00 | 79 | 1010.7 |
| 20260503015003 | 48 | 222 | 5.0 | 8.0 | 0.00 | 0.00 | 0.00 | 79 | 1010.8 |
| 20260503014503 | 48 | 222 | 5.0 | 7.0 | 0.00 | 0.00 | 0.00 | 79 | 1010.9 |
| 20260503014003 | 48 | 222 | 5.0 | 10.0 | 0.00 | 0.00 | 0.00 | 79 | 1011.0 |
| 20260503013503 | 48 | 222 | 5.0 | 10.0 | 0.00 | 0.00 | 0.00 | 79 | 1010.9 |
| 20260503013213 | 48 | 222 | 5.0 | 8.0 | 0.00 | 0.00 | 0.00 | 79 | 1010.9 |
| 20260503012503 | 49 | 222 | 5.0 | 7.0 | 0.00 | 0.00 | 0.00 | 79 | 1011.0 |
| 20260503012214 | 49 | 222 | 5.0 | 9.0 | 0.00 | 0.00 | 0.00 | 79 | 1010.9 |
| 20260503011503 | 49 | 222 | 6.0 | 9.0 | 0.00 | 0.00 | 0.00 | 79 | 1010.9 |
| 20260503011003 | 49 | 222 | 5.0 | 9.0 | 0.00 | 0.00 | 0.00 | 79 | 1011.0 |
| 20260503010503 | 49 | 222 | 6.0 | 9.0 | 0.00 | 0.00 | 0.00 | 79 | 1011.0 |
| 20260503010003 | 49 | 222 | 5.0 | 8.0 | 0.00 | 0.00 | 0.00 | 79 | 1010.8 |
| 20260503005503 | 49 | 222 | 5.0 | 8.0 | 0.00 | 0.00 | 0.00 | 79 | 1010.9 |
| 20260503005003 | 49 | 222 | 6.0 | 9.0 | 0.00 | 0.00 | 0.00 | 79 | 1010.9 |
| 20260503004503 | 49 | 222 | 6.0 | 10.0 | 0.00 | 0.00 | 0.00 | 79 | 1010.9 |
| 20260503004003 | 50 | 222 | 6.0 | 10.0 | 0.00 | 0.00 | 0.00 | 79 | 1011.0 |
| 20260503003503 | 50 | 222 | 6.0 | 8.0 | 0.00 | 0.00 | 0.00 | 79 | 1011.0 |
| 20260503003003 | 50 | 222 | 5.0 | 8.0 | 0.00 | 0.00 | 0.00 | 79 | 1011.0 |
| 20260503002503 | 50 | 222 | 4.0 | 8.0 | 0.00 | 0.00 | 0.00 | 79 | 1011.1 |
| 20260503002003 | 50 | 222 | 5.0 | 9.0 | 0.00 | 0.00 | 0.00 | 79 | 1011.1 |
| 20260503001503 | 50 | 222 | 5.0 | 9.0 | 0.00 | 0.00 | 0.00 | 79 | 1011.1 |
| 20260503001003 | 50 | 222 | 5.0 | 9.0 | 0.00 | 0.00 | 0.00 | 79 | 1011.1 |
| 20260503000503 | 50 | 222 | 6.0 | 9.0 | 0.00 | 0.00 | 0.00 | 79 | 1011.1 |
| 20260503000003 | 50 | 222 | 5.0 | 9.0 | 0.00 | 0.00 | 0.00 | 79 | 1011.2 |
| 20260502235503 | 50 | 222 | 5.0 | 8.0 | 0.00 | 0.00 | 0.00 | 79 | 1011.2 |
| 20260502235213 | 50 | 222 | 5.0 | 8.0 | 0.00 | 0.00 | 0.00 | 79 | 1011.2 |
| 20260502234716 | 50 | 222 | 5.0 | 8.0 | 0.00 | 0.00 | 0.00 | 79 | 1011.1 |
| 20260502234214 | 50 | 222 | 5.0 | 8.0 | 0.00 | 0.00 | 0.00 | 79 | 1011.2 |
| 20260502233503 | 51 | 222 | 5.0 | 8.0 | 0.00 | 0.00 | 0.00 | 79 | 1011.2 |
| 20260502233215 | 50 | 222 | 5.0 | 8.0 | 0.00 | 0.00 | 0.00 | 79 | 1011.2 |
| 20260502232503 | 50 | 222 | 5.0 | 10.0 | 0.00 | 0.00 | 0.00 | 79 | 1011.3 |
| 20260502232003 | 50 | 222 | 6.0 | 12.0 | 0.00 | 0.00 | 0.00 | 79 | 1011.3 |
| 20260502231503 | 50 | 222 | 6.0 | 12.0 | 0.00 | 0.00 | 0.00 | 79 | 1011.3 |
| 20260502231004 | 51 | 222 | 6.0 | 9.0 | 0.00 | 0.00 | 0.00 | 79 | 1011.4 |
| 20260502230715 | 51 | 222 | 6.0 | 9.0 | 0.00 | 0.00 | 0.00 | 79 | 1011.4 |
| 20260502230003 | 51 | 222 | 6.0 | 9.0 | 0.00 | 0.00 | 0.00 | 79 | 1011.5 |
| 20260502225716 | 51 | 222 | 5.0 | 9.0 | 0.00 | 0.00 | 0.00 | 79 | 1011.5 |
| 20260502225213 | 51 | 222 | 5.0 | 8.0 | 0.00 | 0.00 | 0.00 | 79 | 1011.6 |
| 20260502224503 | 51 | 222 | 5.0 | 8.0 | 0.00 | 0.00 | 0.00 | 79 | 1011.7 |
| 20260502224003 | 51 | 222 | 5.0 | 9.0 | 0.00 | 0.00 | 0.00 | 79 | 1011.8 |
| 20260502223503 | 51 | 222 | 5.0 | 9.0 | 0.00 | 0.00 | 0.00 | 79 | 1011.8 |
| 20260502223003 | 51 | 222 | 6.0 | 9.0 | 0.00 | 0.00 | 0.00 | 79 | 1011.8 |
| 20260502222713 | 51 | 222 | 6.0 | 9.0 | 0.00 | 0.00 | 0.00 | 79 | 1011.8 |
| 20260502222003 | 51 | 222 | 5.0 | 9.0 | 0.00 | 0.00 | 0.00 | 79 | 1012.0 |
| 20260502221503 | 51 | 222 | 5.0 | 9.0 | 0.00 | 0.00 | 0.00 | 79 | 1012.1 |
| 20260502221003 | 51 | 222 | 5.0 | 8.0 | 0.00 | 0.00 | 0.00 | 79 | 1012.2 |
| 20260502220503 | 51 | 222 | 5.0 | 8.0 | 0.00 | 0.00 | 0.00 | 79 | 1012.2 |
| 20260502220003 | 51 | 222 | 5.0 | 10.0 | 0.00 | 0.00 | 0.00 | 79 | 1012.2 |
| 20260502215716 | 51 | 222 | 5.0 | 10.0 | 0.00 | 0.00 | 0.00 | 79 | 1012.1 |
| 20260502215003 | 51 | 222 | 5.0 | 8.0 | 0.00 | 0.00 | 0.00 | 79 | 1012.2 |
| 20260502214503 | 51 | 222 | 5.0 | 9.0 | 0.00 | 0.00 | 0.00 | 79 | 1012.4 |
| 20260502214003 | 51 | 222 | 5.0 | 9.0 | 0.00 | 0.00 | 0.00 | 79 | 1012.4 |
| 20260502213503 | 51 | 222 | 5.0 | 8.0 | 0.00 | 0.00 | 0.00 | 79 | 1012.3 |
| 20260502213003 | 51 | 222 | 5.0 | 8.0 | 0.00 | 0.00 | 0.00 | 79 | 1012.4 |
| 20260502212503 | 51 | 222 | 4.0 | 8.0 | 0.00 | 0.00 | 0.00 | 79 | 1012.4 |
| 20260502212217 | 51 | 222 | 5.0 | 8.0 | 0.00 | 0.00 | 0.00 | 79 | 1012.4 |
| 20260502211503 | 51 | 222 | 5.0 | 8.0 | 0.00 | 0.00 | 0.00 | 79 | 1012.4 |
| 20260502211003 | 51 | 222 | 4.0 | 9.0 | 0.00 | 0.00 | 0.00 | 80 | 1012.4 |
| 20260502210503 | 51 | 222 | 4.0 | 9.0 | 0.00 | 0.00 | 0.00 | 80 | 1012.5 |
| 20260502210214 | 51 | 222 | 4.0 | 8.0 | 0.00 | 0.00 | 0.00 | 80 | 1012.4 |
| 20260502205503 | 51 | 222 | 5.0 | 10.0 | 0.00 | 0.00 | 0.00 | 80 | 1012.5 |
| 20260502205003 | 51 | 222 | 5.0 | 9.0 | 0.00 | 0.00 | 0.00 | 80 | 1012.6 |
| 20260502204713 | 51 | 222 | 6.0 | 10.0 | 0.00 | 0.00 | 0.00 | 80 | 1012.7 |
| 20260502204003 | 51 | 222 | 5.0 | 10.0 | 0.00 | 0.00 | 0.00 | 80 | 1012.7 |
| 20260502203503 | 51 | 222 | 5.0 | 8.0 | 0.00 | 0.00 | 0.00 | 80 | 1012.8 |
| 20260502203003 | 51 | 222 | 5.0 | 8.0 | 0.00 | 0.00 | 0.00 | 80 | 1012.8 |